Regional Weather Roundup
Issued by NWS

Home | Current Version | Previous Version | Graphics & Text | Print | Product List | Glossary On
Versions: 1 2 3 4 5 6 7 8 9 10 11 12 13 14 15 16 17 18 19 20 21 22 23 24 25 26 27 28 29 30 31 32 33 34 35 36 37 38 39 40 41 42 43 44 45 46 47 48 49 50
000
ASUS43 KLOT 311303
RWRIL

ILLINOIS REGIONAL WEATHER ROUNDUP
NATIONAL WEATHER SERVICE CHICAGO/ROMEOVILLE IL
800 AM CDT TUE MAY 31 2016

NOTE: "FAIR" INDICATES FEW OR NO CLOUDS BELOW 12,000 FEET WITH NO
SIGNIFICANT WEATHER AND/OR OBSTRUCTIONS TO VISIBILITY.

* THESE STATIONS ARE NOT UNDER NWS QUALITY CONTROL. THEY ALSO MAY NOT
  REPORT WEATHER SUCH AS PRECIPITATION OR FOG.

ILZ001-002-007-009-015-016-024-311400-
NORTHWEST ILLINOIS

CITY           SKY/WX    TMP DP  RH WIND       PRES   REMARKS
MOLINE         PTSUNNY   72  64  76 CALM      29.96S
$$

ILZ003-004-008-010-011-017-018-311400-
NORTH CENTRAL ILLINOIS

CITY           SKY/WX    TMP DP  RH WIND       PRES   REMARKS
ROCKFORD       CLOUDY    68  59  73 SE7       30.01R
FREEPORT*      CLOUDY    66  61  84 E8        30.00S
ROCHELLE*      CLOUDY    71  59  65 SE12      30.00S
$$

ILZ005-006-012>014-019>023-311400-
NORTHEAST ILLINOIS

CITY           SKY/WX    TMP DP  RH WIND       PRES   REMARKS
CHICAGO-OHARE  PTSUNNY   73  54  51 NE9       30.00S
CHICAGO-MIDWAY PTSUNNY   73  57  57 E9        30.00R
AURORA         PTSUNNY   73  61  65 E5        30.01R
LANSING*       CLOUDY    69  58  67 SE6       30.01R
WAUKEGAN       MOSUNNY   68  54  60 E9        30.02R
DUPAGE AIRPORT CLOUDY    72  56  57 E9        30.00R
WHEELING       MOSUNNY   70  52  52 E6        30.02R
MORRIS*        CLOUDY    72  58  60 SE8       29.98S
NORTHERLY ISL    N/A     67  57  70 NE3         N/A
NORTHERLY ISL    N/A     67  57  70 NE3         N/A
$$

LMZ740>746-311400-
SOUTHERN LAKE MICHIGAN

STATION/POSITION SKY/WX   TEMP    WIND        PRES    VSBY  WAVE
                          AIR SEA DIR/SP/G                  HT/PER
                          (F)     (DEG/KT/KT) (MB)    (MI)  (FT/S)
SOUTHERN BUOY              59 55  180/  2/  2 1016.5          0
WILMETTE HARBOR            61 57  100/  4/  6   N/A           1
HARRISON CRIB              66     100/  4/  6   N/A
BURNHAM HARBOR             67      30/  3/  4   N/A
CALUMET HARBOR             64      60/  4/  7 1015.3R
BURNS HARBOR               67      80/  7/  8 1016.6R
MICHIGAN CITY              68      90/  9/ 11   N/A
MICHIGAN CITY 6N           63 61   60/  6/  6   N/A           0
ST. JOSEPH                 66 65  100/  8/ 10   N/A           1
$$

ILZ025>027-034>036-040-047-049-050-058-095>099-311400-
WEST-CENTRAL ILLINOIS

CITY           SKY/WX    TMP DP  RH WIND       PRES   REMARKS
QUINCY         CLOUDY    68  63  84 CALM      29.99S
MACOMB*        CLOUDY    67  62  82 SW7       30.01S
PITTSFIELD*    CLOUDY    69  65  86 CALM      30.01S
$$

ILZ028>032-037-038-041>044-048-051>054-059>061-311400-
CENTRAL ILLINOIS

CITY           SKY/WX    TMP DP  RH WIND       PRES   REMARKS
BLOOMINGTON    PTSUNNY   72  64  75 S6        30.00S
DECATUR        CLOUDY    71  64  78 E3        29.99S
PEORIA         CLOUDY    71  64  78 SE3       29.98S
LINCOLN*       CLOUDY    70  65  83 CALM      29.98S
SPRINGFIELD    CLOUDY    73  63  70 CALM      29.99R
TAYLORVILLE    NOT AVBL
$$

ILZ033-039-045-046-055>057-062-063-311400-
EAST-CENTRAL ILLINOIS

CITY           SKY/WX    TMP DP  RH WIND       PRES   REMARKS
CHAMPAIGN      CLOUDY    71  61  70 SE5       30.00S
MATTOON          N/A     70  62  76 E3        29.99S
$$

ILZ079-100>102-311400-
SOUTHWEST ILLINOIS

CITY           SKY/WX    TMP DP  RH WIND       PRES   REMARKS
ALTON          CLOUDY    68  63  83 SW9       30.01R THUNDER
CAHOKIA*       CLOUDY    69  64  84 CALM      29.99F
SPARTA*        CLOUDY    70  65  84 W5        30.00S
$$

ILZ064>066-069>071-074>076-080>082-084>086-088>090-092>094-311400-
SOUTH-CENTRAL ILLINOIS

CITY           SKY/WX    TMP DP  RH WIND       PRES   REMARKS
CARBONDALE     CLOUDY    72  67  84 CALM      29.98R
CAIRO*         CLOUDY    72  68  88 CALM      29.97S
EFFINGHAM*     CLOUDY    73  66  79 CALM      30.01S
MARION         PTSUNNY   73  70  88 SE5       29.98S
MT. VERNON     SUNNY     73  64  73 NE5       29.99S
SALEM*         CLOUDY    76  62  60 NE3       29.98S
$$

ILZ067-068-072-073-078-083-087-091-311400-
SOUTHEAST ILLINOIS

CITY           SKY/WX    TMP DP  RH WIND       PRES   REMARKS
LAWRENCEVILLE  CLOUDY    71  64  78 E5        30.00R
FLORA*         CLOUDY    75  67  76 NE3       29.99S
HARRISBURG*    CLOUDY    73  70  89 CALM      29.98S
ROBINSON*      MOSUNNY   68  65  90 CALM      30.01S
$$

ABBREVIATIONS USED IN REMARKS
   TC - TEMPERATURE IN CELSIUS
  WCI - WIND CHILL INDEX
   HX - HEAT INDEX
  VSB - VISIBILITY
$$





USA.gov is the U.S. government's official web portal to all federal, state and local government web resources and services.